Regional Weather Roundup
Issued by NWS

Home | Current Version | Previous Version | Graphics & Text | Print | Product List | Glossary On
Versions: 1 2 3 4 5 6 7 8 9 10 11 12 13 14 15 16 17 18 19 20 21 22 23 24 25 26 27 28 29 30 31 32 33 34 35 36 37 38 39 40 41 42 43 44 45 46 47 48 49 50
000
ASUS43 KLMK 180902
RWRKY
KENTUCKY REGIONAL WEATHER ROUNDUP
NATIONAL WEATHER SERVICE LOUISVILLE KY
500 AM EDT FRI AUG 18 2017

NOTE "FAIR" INDICATES FEW OR NO CLOUDS BELOW 12,000 FEET
WITH NO SIGNIFICANT WEATHER AND/OR OBSTRUCTIONS TO VISIBILITY.

KYZ001>023-026-027-061>063-070>075-181000-
WESTERN AND SOUTH CENTRAL KENTUCKY

CITY           SKY/WX    TMP DP  RH WIND       PRES   REMARKS
PADUCAH        CLEAR     71  68  90 SW6       29.92R
HENDERSON      CLEAR     69  68  96 SW3       29.90S
OWENSBORO      CLEAR     71  70  96 W5        29.90R
HOPKINSVILLE   PTCLDY    75  74  98 W8        29.93R
BOWLING GREEN  LGT RAIN  77  75  93 W7        29.91R
GLASGOW        CLOUDY    75  75 100 SW5       29.91S
$$

KYZ024-025-028>034-038-045-046-053-181000-
NORTH CENTRAL KENTUCKY

CITY           SKY/WX    TMP DP  RH WIND       PRES   REMARKS
LOUISVILLE/SDF PTCLDY    75  73  93 W7        29.87R
LOUISVILLE/LOU CLOUDY    75  75 100 SW5       29.87R
FORT KNOX      CLOUDY    73  73 100 SW5       29.88R
$$

KYZ035>037-039>044-047>052-055>060-089>105-181000-
NORTHEAST KENTUCKY

CITY           SKY/WX    TMP DP  RH WIND       PRES   REMARKS
LEXINGTON      LGT RAIN  74  71  91 SW7       29.89S
COVINGTON      MOCLDY    74  74 100 SW3       29.85S
FRANKFORT      CLOUDY    74  71  91 SW6       29.87R
$$

KYZ054-064>069-076>088-106>120-181000-
SOUTHEAST KENTUCKY

CITY           SKY/WX    TMP DP  RH WIND       PRES   REMARKS
JACKSON        LGT RAIN  73  71  93 VRB5      29.93R
LONDON         CLOUDY    73  71  93 SW5       29.93S
SOMERSET       NOT AVBL
MIDDLESBORO    CLOUDY    71  71 100 CALM      29.94S
MONTICELLO     RAIN      74  72  93 SW17      29.94S
$$




USA.gov is the U.S. government's official web portal to all federal, state and local government web resources and services.